SM4TUV Weather Reports


Display with metric or nautical units.
time (UTC)temp
F
wind
direction
speed
MPH
gust
MPH
rain 1hr
in
rain 24hr
in
rain mn
in
humidity
%
barometer
mb
20260901055432 50 79 3.0 4.0 0.00 0.00 0.00 77 975.8
20260901054532 50 90 4.0 5.0 0.00 0.00 0.00 77 975.9
20260901053632 49 94 3.0 4.0 0.00 0.00 0.00 80 975.9
20260901052732 48 96 3.0 4.0 0.00 0.00 0.00 81 975.7
20260901050933 48 89 2.0 4.0 0.00 0.00 0.00 83 975.7
20260901050033 46 100 4.0 5.0 0.00 0.00 0.00 85 975.7
20260901045132 46 88 4.0 5.0 0.00 0.00 0.00 86 975.6
20260901044232 45 83 5.0 6.0 0.00 0.00 0.00 86 975.6
20260901043332 45 63 6.0 7.0 0.00 0.00 0.00 86 975.7
20260901040632 45 47 7.0 8.0 0.00 0.00 0.00 86 975.8
20260901035733 45 84 4.0 6.0 0.00 0.00 0.00 86 975.6
20260901034832 46 81 5.0 7.0 0.00 0.00 0.00 86 975.7
20260901033933 46 87 5.0 6.0 0.00 0.00 0.00 86 975.5
20260901033032 46 99 4.0 5.0 0.00 0.00 0.00 85 975.5
20260901032132 47 93 4.0 5.0 0.00 0.00 0.00 84 975.6
20260901031232 47 89 3.0 4.0 0.00 0.00 0.00 83 975.6
20260901030332 48 93 3.0 4.0 0.00 0.00 0.00 83 975.5
20260901025433 48 102 4.0 4.0 0.00 0.00 0.00 83 975.4
20260901024532 48 97 4.0 4.0 0.00 0.00 0.00 83 975.3
20260901023632 48 98 3.0 4.0 0.00 0.00 0.00 83 975.2
20260901022732 48 106 3.0 4.0 0.00 0.00 0.00 83 975.1
20260901021832 48 125 3.0 4.0 0.00 0.00 0.00 83 975.1
20260901020933 49 135 2.0 4.0 0.00 0.00 0.00 83 975.2
20260901020032 49 140 2.0 2.0 0.00 0.00 0.00 83 975.1
20260901015133 49 139 2.0 3.0 0.00 0.00 0.00 83 975.0
20260901014232 49 114 3.0 4.0 0.00 0.00 0.00 82 974.8
20260901013332 50 118 3.0 4.0 0.00 0.00 0.00 82 974.8
20260901012433 50 123 3.0 4.0 0.00 0.00 0.00 83 974.6
20260901011532 50 115 3.0 3.0 0.00 0.00 0.00 83 974.6
20260901010632 50 135 3.0 4.0 0.00 0.00 0.00 83 974.8
20260901003032 51 106 2.0 4.0 0.00 0.00 0.00 83 974.5
20260901002132 51 126 2.0 3.0 0.00 0.00 0.00 83 974.5
20260901001233 51 128 2.0 2.0 0.00 0.00 0.00 82 974.5
20260901000332 52 116 2.0 4.0 0.00 0.00 0.00 82 974.5
20260831235432 52 109 1.0 2.0 0.00 0.00 0.00 82 974.5
20260831234532 52 97 2.0 2.0 0.00 0.00 0.00 82 974.4
20260831233632 52 50 2.0 2.0 0.00 0.00 0.00 82 974.3
20260831232732 53 18 2.0 3.0 0.00 0.00 0.00 81 974.5
20260831230933 54 84 2.0 4.0 0.00 0.00 0.00 80 974.3
20260831230033 54 66 3.0 4.0 0.00 0.00 0.00 80 974.4
20260831225132 54 39 3.0 4.0 0.00 0.00 0.00 80 974.3
20260831224232 54 36 3.0 4.0 0.00 0.00 0.00 80 974.1
20260831223332 55 6 3.0 4.0 0.00 0.00 0.00 80 974.2
20260831222432 55 8 3.0 4.0 0.00 0.00 0.00 80 974.2
20260831221532 55 25 2.0 3.0 0.00 0.00 0.00 80 974.0
20260831220632 56 8 3.0 4.0 0.00 0.00 0.00 80 973.9
20260831215732 56 5 4.0 6.0 0.00 0.00 0.00 80 973.9
20260831214832 57 9 4.0 6.0 0.00 0.00 0.00 80 973.7
20260831213933 57 25 4.0 6.0 0.00 0.00 0.00 80 973.8
20260831213032 58 24 4.0 6.0 0.00 0.00 0.00 79 973.9
20260831211233 59 45 5.0 7.0 0.00 0.00 0.00 78 973.5
20260831210332 59 51 5.0 6.0 0.00 0.00 0.00 79 973.5
20260831204532 59 39 6.0 7.0 0.00 0.00 0.00 79 973.4
20260831203632 60 27 6.0 9.0 0.00 0.00 0.00 79 973.4
20260831202732 60 35 7.0 10.0 0.00 0.00 0.00 80 973.3
20260831200932 60 186 3.0 3.0 0.00 0.00 0.00 85 973.2
20260831200032 60 267 3.0 6.0 0.00 0.00 0.00 85 973.2
20260831195132 60 265 5.0 7.0 0.00 0.01 0.00 85 973.1
20260831193332 60 212 4.0 5.0 0.00 0.01 0.00 84 972.7
20260831192432 60 247 4.0 5.0 0.00 0.01 0.00 83 972.8
20260831190632 61 194 5.0 6.0 0.00 0.01 0.00 80 972.5
20260831185732 61 236 5.0 8.0 0.00 0.01 0.00 80 972.4
20260831184832 61 215 4.0 7.0 0.00 0.01 0.00 79 972.4
20260831183932 61 199 4.0 7.0 0.00 0.01 0.00 79 972.4
20260831183032 61 193 3.0 6.0 0.00 0.01 0.00 79 972.2
20260831182132 61 207 5.0 6.0 0.00 0.01 0.00 78 972.1
20260831181232 62 231 4.0 5.0 0.00 0.01 0.00 77 972.0
20260831180332 63 246 4.0 5.0 0.00 0.01 0.00 76 972.1
20260831175433 63 233 3.0 4.0 0.00 0.01 0.00 76 971.9
20260831174532 64 190 2.0 4.0 0.00 0.01 0.00 76 971.8
20260831173632 64 184 3.0 4.0 0.00 0.01 0.00 75 971.8
20260831172732 65 199 2.0 4.0 0.00 0.01 0.00 74 971.7
20260831171832 65 201 3.0 4.0 0.00 0.01 0.00 74 971.7
20260831170932 65 294 2.0 4.0 0.00 0.01 0.00 74 971.6
20260831170032 65 289 2.0 2.0 0.00 0.01 0.00 73 971.6
20260831165132 65 239 3.0 6.0 0.00 0.01 0.00 73 971.6
20260831164232 65 231 4.0 6.0 0.00 0.01 0.00 72 971.5
20260831163332 65 212 3.0 5.0 0.00 0.01 0.00 72 971.4
20260831161532 66 250 4.0 6.0 0.00 0.01 0.00 70 971.3
20260831160632 66 258 5.0 6.0 0.00 0.01 0.00 69 971.4
20260831155732 67 243 4.0 6.0 0.00 0.01 0.00 69 971.3
20260831154832 68 219 4.0 7.0 0.00 0.01 0.00 67 971.2
20260831153932 68 228 4.0 5.0 0.00 0.01 0.00 67 971.1
20260831153032 68 208 4.0 7.0 0.00 0.01 0.00 66 971.1
20260831152132 68 231 4.0 7.0 0.00 0.01 0.00 65 971.0
20260831151232 67 269 5.0 7.0 0.00 0.01 0.00 68 971.2
20260831150332 66 256 5.0 6.0 0.00 0.01 0.00 70 971.0
20260831145432 66 238 5.0 7.0 0.00 0.01 0.00 70 971.1
20260831144532 66 240 5.0 8.0 0.00 0.01 0.00 69 971.0
20260831143632 67 232 6.0 10.0 0.00 0.01 0.00 68 971.0
20260831141832 69 256 5.0 8.0 0.00 0.02 0.00 62 970.9
20260831140032 72 262 2.0 5.0 0.00 0.02 0.00 62 970.9
20260831135132 69 227 2.0 4.0 0.00 0.02 0.00 67 970.9
20260831134232 67 199 3.0 4.0 0.00 0.02 0.00 68 971.0
20260831133332 67 278 4.0 6.0 0.00 0.02 0.00 68 971.0
20260831132432 66 296 4.0 5.0 0.00 0.02 0.00 68 971.0
20260831125732 68 190 8.0 14.0 0.00 0.02 0.00 65 970.6
20260831124832 68 186 10.0 14.0 0.00 0.02 0.00 66 970.6
20260831123933 69 190 8.0 14.0 0.00 0.02 0.00 66 970.5
20260831122132 68 195 6.0 10.0 0.00 0.02 0.00 66 970.8
20260831121233 67 190 7.0 8.0 0.00 0.02 0.00 70 970.6
20260831120332 67 203 8.0 11.0 0.00 0.02 0.00 68 970.7
20260831113632 68 202 9.0 12.0 0.00 0.02 0.00 69 970.7
20260831112732 67 206 8.0 12.0 0.00 0.02 0.00 69 970.7
20260831110933 67 183 8.0 10.0 0.00 0.02 0.00 71 970.9
20260831110032 67 201 9.0 12.0 0.00 0.02 0.00 70 970.7
20260831104232 65 211 6.0 8.0 0.00 0.02 0.00 75 970.6
20260831103332 64 221 5.0 7.0 0.00 0.02 0.00 77 970.7
20260831102432 63 186 7.0 11.0 0.00 0.02 0.00 78 970.7
20260831101532 63 222 7.0 10.0 0.00 0.02 0.00 78 970.9
20260831094832 63 204 8.0 10.0 0.00 0.02 0.00 82 970.8
20260831093932 61 198 6.0 10.0 0.00 0.02 0.00 85 971.0
20260831093032 60 208 5.0 10.0 0.00 0.02 0.00 86 970.9
20260831092132 60 217 6.0 10.0 0.00 0.02 0.00 86 970.8
20260831091233 61 236 6.0 8.0 0.00 0.02 0.00 83 970.9
20260831090332 62 237 6.0 8.0 0.00 0.02 0.00 81 970.7
20260831085432 62 224 7.0 11.0 0.00 0.02 0.00 80 970.8
20260831084532 62 210 5.0 9.0 0.00 0.02 0.00 80 970.7
20260831083632 62 225 5.0 9.0 0.00 0.02 0.00 81 970.8
20260831082733 61 237 7.0 9.0 0.00 0.02 0.00 82 970.7
20260831080933 61 197 6.0 11.0 0.00 0.02 0.00 81 970.6
20260831080032 61 219 6.0 8.0 0.00 0.02 0.00 82 970.5
20260831074233 62 235 5.0 8.0 0.00 0.02 0.00 81 970.5
20260831073332 62 190 5.0 8.0 0.00 0.02 0.00 81 970.4
20260831072432 62 215 6.0 9.0 0.00 0.02 0.00 82 970.3
20260831071532 62 220 6.0 9.0 0.00 0.02 0.00 82 970.4
20260831070632 63 185 6.0 7.0 0.00 0.02 0.00 79 970.4
20260831064832 65 240 6.0 8.0 0.00 0.02 0.00 77 970.3
20260831063933 64 203 4.0 6.0 0.00 0.02 0.00 82 970.3
20260831062132 60 222 3.0 5.0 0.00 0.02 0.00 86 970.4
20260831061232 60 210 2.0 4.0 0.00 0.02 0.00 87 970.4
20260831060332 60 240 3.0 4.0 0.00 0.02 0.00 86 970.2